Погода в Йере

Франция     43°07′03″N   6°07′42″E
темп.,
°C
ветер,
м/с
пор.,
м/с
влажн.,
%
обл.,
%
осадки,
мм/ч
давл.,
гПа
погр.,
м
24 октября, вс
вс2423:00+19св68690 0.0 1022547
02:00+19св710660 0.0 1022632
05:00+19всв913680 0.0 1021889
08:00+18св812655 0.0 1021786
11:00+19всв1012629 0.0 10231030
14:00+19в9116012 0.0 1022892
17:00+20в9116116 0.0 1022820
20:00+19всв89605 0.0 1022819
25 октября, пн
пн2523:00+19св56615 0.0 1022685
02:00+19всв335926 0.0 1022581
05:00+18сз12600 0.0 1021545
08:00+18зсз45640 0.0 1020551
11:00+18ссв22570 0.0 1021275
14:00+18юз12570 0.0 1020225
17:00+19з55600 0.0 1019368
20:00+19зсз66630 0.0 1020331
26 октября, вт
вт2623:00+18сз44625 0.0 1020318
02:00+17ссз336116 0.0 1020275
05:00+17ссз226183 0.0 1019259
08:00+16ссв3363100 0.0 1019221
11:00+17св33600 0.0 1020321
14:00+18вюв12620 0.0 1020327
17:00+18вюв12695 0.0 1019521
20:00+18в23690 0.0 1020570
27 октября, ср
ср2723:00+18всв33715 0.0 1021476
02:00+18всв33725 0.0 1021391
05:00+17св337254 0.0 1022381
08:00+17св437363 0.0 1023407
11:00+17св33705 0.0 1024351
14:00+17в236922 0.0 1023369
17:00+18в236080 0.0 1022368
20:00+19в345623 0.0 1023466
28 октября, чт
чт2823:00+18ссв446137 0.0 1023394
02:00+17ссв456555 0.0 1022300
05:00+17св5663100 0.0 1022460
08:00+17всв67645 0.0 1022596
11:00+18всв56645 0.0 1022778
14:00+18в55615 0.0 1021686
17:00+18вюв45645 0.0 1020586
20:00+18в4459100 0.0 1020605